Regional Weather Roundup
Issued by NWS

Home | Current Version | Previous Version | Graphics & Text | Print | Product List | Glossary On
Versions: 1 2 3 4 5 6 7 8 9 10 11 12 13 14 15 16 17 18 19 20 21 22 23 24 25 26 27 28 29 30 31 32 33 34 35 36 37 38 39 40 41 42 43 44 45 46 47 48 49 50
000
ASUS45 KTFX 281619
RWRMT
MONTANA HOURLY WEATHER ROUNDUP
NATIONAL WEATHER SERVICE GREAT FALLS MT
1019 AM MDT SAT MAR 28 2015

NOTE: "FAIR" INDICATES FEW OR NO CLOUDS BELOW 12000 FEET WITH NO
SIGNIFICANT WEATHER AND/OR OBSTRUCTIONS TO VISIBILITY.

* THESE STATIONS ARE NOT UNDER NWS QUALITY CONTROL. THEY DO NOT
   REPORT WEATHER SUCH AS PRECIPITATION OR FOG.

MTZ001>007-043-281700-
WEST OF THE DIVIDE
CITY           SKY/WX    TMP DP  RH WIND       PRES   REMARKS
KALISPELL      CLOUDY    46  37  71 S15       29.88R
MISSOULA       CLOUDY    45  34  65 NW16      30.03R
BUTTE          CLOUDY    43  32  65 NW28G43   29.89R
MULLAN PASS    LGT SNOW  28  28 100 W13G31    29.98R VSB 1/2  WCI  17
* ESSEX        N/A       43  39  86 W1G11      N/A
* EUREKA APT   CLOUDY    48  36  63 S17G23    29.86R
* HAMILTON APT CLOUDY    45  30  56 S14       30.05R
* LIBBY APT    CLOUDY    46  36  68 S9G20     29.91R
* LINCOLN      N/A       42  39  89 SW7G20     N/A
* LOOKOUT PASS N/A       35  33  92 SE5        N/A   WCI  31
* POLSON       N/A       42  41  96 S4G11      N/A
* SEELEY LAKE  N/A       43  37  79 W4         N/A
* THOMP F APT  CLOUDY    47  29  50 SE7G16     N/A
* YAAK HILL    N/A       44  42  93 SE1G10     N/A
$$

MTZ008-052>055-281700-
SOUTHWEST MONTANA
CITY           SKY/WX    TMP DP  RH WIND       PRES   REMARKS
BOZEMAN        PTCLDY    63  36  37 N/A       29.78F
DILLON         PTCLDY    59  28  31 SW8G17    29.83F
* W YELLOWSTON SUNNY     46  32  58 W3         N/A
* BOULDER HILL N/A       48  29  48 NE8G19     N/A
* HOMESTAKE PS N/A       55  27  34 W9G20      N/A
* MONIDA PASS  N/A       44  30  58 SE21G29    N/A
* RAYNOLDS PAS N/A       45  19  35 S19G27     N/A
* WHITEHALL    N/A       58  32  37 SW12G21    N/A
* WISE RIVER   N/A       52  35  52 SW8G23     N/A
$$

MTZ009>010-012-014-046-048-049-054-281700-
EAST SLOPES AND CENTRAL MONTANA
CITY           SKY/WX    TMP DP  RH WIND       PRES   REMARKS
CUT BANK       PTSUNNY   54  36  51 SW36G43   29.68R
GREAT FALLS    PTSUNNY   59  36  42 W29G35    29.67R
HELENA         CLOUDY    52  37  57 W33G45    29.82R
MALMSTROM AFB  PTSUNNY   61  36  39 W23G35    29.67R
* CONRAD       PTCLDY    54  46  74 SW15G20    N/A
* DEARBORN     N/A       57  37  47 S20G34     N/A
* EAST GLACIER N/A       41  36  82 W31G43     N/A
* MONARCH      N/A       59  26  28 SW26G39    N/A
* PENDROY      N/A       50  36  59 VRB10G22    N/A
* ROGERS PASS  N/A       40  36  86 SE12G26    N/A   WCI  33
* SAINT MARY   N/A       43  39  86 S11G27     N/A
* WHITE SULPH  N/A       57  28  33 S9G22      N/A
$$

MTZ011-013-016-021-035-040-045-047-050-051-281700-
NORTH CENTRAL MONTANA
CITY           SKY/WX    TMP DP  RH WIND       PRES   REMARKS
HAVRE          CLOUDY    57  37  47 W17       29.57R
LEWISTOWN      PTSUNNY   72  30  21 SW23G29   29.68F
* N BAR RANCH  SUNNY     61  34  36 SW7       29.72F
* CHINOOK      CLOUDY    52  37  57 W9        29.57F
* FORT BENTON  PTSUNNY   63  36  37 SW25G31   29.62R
* CHESTER      N/A       53  42  66 W7G12      N/A
* DENTON       N/A       64  35  34 S17        N/A
* GEYSER       N/A       67  32  27 SW27G35    N/A
* JUDITH GAP   N/A       57  37  47 S7         N/A
* LOMA         N/A       49  38  66 SW3        N/A
$$

MTZ017>020-022>027-061-062-281700-
NORTHEAST MONTANA
CITY           SKY/WX    TMP DP  RH WIND       PRES   REMARKS
GLASGOW        PTCLDY    52  36  55 SE12      29.61F
GLENDIVE       SUNNY     57  37  47 S14       29.70F
JORDAN         SUNNY     66  36  33 VRB6      29.64F
SIDNEY         SUNNY     54  37  53 S17       29.66F
WOLF POINT     PTCLDY    52  39  61 CALM      29.63F
* BEAVER HILL  N/A       60  34  38 S17G24     N/A
* CIRCLE       N/A       61  40  46 SW9G14     N/A
* LINDSAY DVD  N/A       63  34  34 S14        N/A
* NAVAJO       N/A       52  39  61 SW11G16    N/A
* PLENTYWOOD A PTCLDY    48  37  66 SE13      29.62F
* POPLAR APT   PTCLDY    54  39  57 S5        29.63F
* SACO         N/A       50  38  64 NE9        N/A
$$

MTZ028>042-056>058-281700-
SOUTHCENTRAL AND SOUTHEAST MONTANA
CITY           SKY/WX    TMP DP  RH WIND       PRES   REMARKS
BAKER          SUNNY     61  37  41 S10       29.76F
BILLINGS       PTCLDY    64  34  33 SW14      29.74F
LIVINGSTON     PTCLDY    64  30  28 SW39G48   29.74F
MILES CITY     SUNNY     55  36  49 SE10      29.71F
* BIG TIMBER A PTCLDY    64  32  30 SW20      29.73F
* FORSYTH APT  SUNNY     61  39  44 N3        29.70F
* ALZADA       N/A       61  37  41 SE2        N/A
* HYSHAM       N/A       63  32  31 W4G16      N/A
* LAME DEER    N/A       66  35  32 SW8        N/A
* REED POINT   N/A       51  34  52 W6         N/A
* ROSCOE HILL  N/A       63  18  17 S15G42     N/A
$$

REGIONAL REPORTS...DAKOTAS
CITY           SKY/WX    TMP DP  RH WIND       PRES   REMARKS
WILLISTON      SUNNY     52  37  57 S9        29.67F
DICKINSON      SUNNY     55  37  51 S24       29.75F
BEACH          SUNNY     59  37  44 S15       29.73F
CROSBY         SUNNY     48  39  71 S21G28    29.63F
TIOGA          SUNNY     48  39  71 S14       29.71F
WATFORD CITY   SUNNY     55  37  51 S12G17    29.67F
BISMARCK       CLOUDY    32  32 100 SE13      29.90F WCI  22
GRAND FORKS    PTCLDY    37  27  67 S21G26    30.02F WCI  26
FARGO          SUNNY     39  27  62 S16       30.07F WCI  30
BUFFALO SD     SUNNY     54  36  51 S13       29.75F
RAPID CITY     SUNNY     55  36  49 SE9       29.86F
$$

REGIONAL REPORTS...WYOMING/IDAHO/WASHINGTON
CITY           SKY/WX    TMP DP  RH WIND       PRES   REMARKS
GILLETTE       SUNNY     66  34  31 SW12      29.86F
SHERIDAN       PTCLDY    70  30  23 S12G18    29.81F
CODY           SUNNY     66  30  26 SW13G20   29.86F
YELLOWSTONE LA SUNNY     43  28  56 VRB3      30.06F
SALMON         CLOUDY    43  36  76 SW10      30.05R
MULLAN PASS    LGT SNOW  28  28 100 W13G31    29.98S VSB 1/2  WCI  17
SAND POINT     RAIN      43  37  79 SW7G21    29.97R
SPOKANE        PTSUNNY   45  37  74 SW29G36   30.03R
$$

REGIONAL REPORTS...ALBERTA
CITY           SKY/WX    TMP DP  RH WIND       PRES   REMARKS
CALGARY        LGT RAIN  45  36  71 N14       29.62R
LETHBRIDGE     PTSUNNY   55  37  51 W21G30    29.60R
MEDICINE HAT   LGT RAIN  54  41  62 SW3       29.54R
EDMONTON       PTSUNNY   41  39  93 NW10      29.62S
WATERTON GATE  N/A       48  34  59 SW31G49    N/A
CARDSTON       N/A       52  36  55 SW17G37    N/A
MILK RIVER     N/A       54  37  53 W25G32     N/A
$$

REGIONAL REPORTS...SASKATCHEWAN
CITY           SKY/WX    TMP DP  RH WIND       PRES   REMARKS
SWIFT CURRENT  PTCLDY    57  37  47 SW16      29.51F
REGINA         CLOUDY    41  36  82 SE18      29.55F
VAL MARIE      N/A       50  37  61 S6         N/A
ASSINIBOIA     N/A       55  39  55 SW15       N/A
CORONACH       N/A       52  41  66 SE9        N/A

$$



USA.gov is the U.S. government's official web portal to all federal, state and local government web resources and services.